Regional Weather Roundup
Issued by NWS

Home | Current Version | Previous Version | Text Only | Print | Product List | Glossary On
Versions: 1 2 3 4 5 6 7 8 9 10 11 12 13 14 15 16 17 18 19 20 21 22 23 24 25 26 27 28 29 30 31 32 33 34 35 36 37 38 39 40 41 42 43 44 45 46 47 48 49 50
000
ASUS44 KEWX 190311
RWRTX
SOUTH TEXAS REGIONAL WEATHER ROUNDUP
NATIONAL WEATHER SERVICE AUSTIN/SAN ANTONIO TX
1000 PM CDT SAT APR 18 2015

NOTE: "FAIR" INDICATED FEW OR NO CLOUDS BELOW 12,000 FEET WITH NO
SIGNIFICANT WEATHER AND/OR OBSTRUCTIONS TO VISIBILITY.

* - THESE STATIONS ARE NOT NWS OR FAA STATIONS...AND ARE NOT SUBJECT
    TO NWS AND FAA QUALITY CONTROL.

TXZ171-172-183>190-190400-
TEXAS HILL COUNTRY AND EDWARDS PLATEAU

CITY           SKY/WX    TMP DP  RH WIND       PRES   REMARKS
JUNCTION       CLEAR     61  56  83 E3        29.80R
*LLANO         CLOUDY    57  57 100 CALM      29.83F
BURNET         CLOUDY    60  58  92 SE6       29.83R
*HORSESHOE BAY TSTM      57  55  91 S8        29.81R
*KERRVILLE     CLOUDY    69  66  91 SE9       29.84R
*FREDERICKSBRG RAIN      62  56  83 SW9       29.81S
*ROCKSPRINGS   CLEAR     68  61  77 S8        29.85R
*BOERNE STAGE  MOCLDY    68  63  83 SE3       29.85R
*CASTROVILLE   MOCLDY    69  68  96 E3        29.83R
HONDO          MOCLDY    69  67  93 S6        29.82R
*UVALDE        NOT AVBL
DEL RIO        CLEAR     71  65  81 S3        29.77R
LAUGHLIN AFB   CLEAR     70  67  90 SE3       29.78R
CARRIZO SPRGS  MOCLDY    72  68  88 SE9       29.77S
$$

TXZ173-191>194-202-209-217>225-228-190400-
CENTRAL AND SOUTH CENTRAL TEXAS

CITY           SKY/WX    TMP DP  RH WIND       PRES   REMARKS
GEORGETOWN     CLOUDY    61  57  88 N8        29.80F THUNDER
AUSTIN/BERGSTM TSTM      56  56 100 N9        29.82S FOG
AUSTIN/MABRY   CLOUDY    54  54 100 CALM      29.85F THUNDER
*AUSTIN/EXEC   LGT RAIN  59  59 100 S7        29.85R
*LAGO VISTA    CLOUDY    58  57  94 W8G18     29.86S
SAN MARCOS     CLOUDY    66  55  68 N21       29.84R
NEW BRAUNFELS  CLOUDY    72  68  87 CALM      29.82R
RANDOLPH AFB   CLOUDY    71  68  90 SW3       29.83R
PT SAN ANTONIO CLOUDY    70  70 100 S8        29.81S
SAN ANTONIO    MOCLDY    72  66  81 S5        29.83R
STINSON FIELD  CLOUDY    69  68  96 CALM      29.81R
*PLEASANTON    PTCLDY    69  65  88 S6        29.81R
*LA GRANGE     MOCLDY    70  68  94 S5        29.80R
*GIDDINGS      PTCLDY    66  65  95 CALM      29.85R FOG
*GONZALES      PTCLDY    67  63  87 S5        29.81S
$$

TXZ163>164-176>182-195>201-210>213-226-227-235-190400-
SOUTHEAST TEXAS

CITY           SKY/WX    TMP DP  RH WIND       PRES   REMARKS
COLLEGE STN    PTCLDY    71  66  84 W7        29.82R
*BRYAN         MOCLDY    69  67  94 W7        29.85R
*CALDWELL      CLOUDY    64  61  88 NW18G30   29.89R
*CROCKETT      PTCLDY    70  70 100 CALM      29.81S
*BRENHAM       PTCLDY    69  66  90 W3        29.82R
HUNTSVILLE     CLEAR     69  67  93 CALM      29.79R
CONROE         PTCLDY    70  65  84 W7        29.78R
HOUSTON BUSH   PTCLDY    67  64  90 W3        29.78R
HOUSTON HOBBY  PTCLDY    67  63  87 NW6       29.78R
*HOUSTON SW AP PTCLDY    65  64  98 CALM      29.80R
PEARLAND       PTCLDY    66  63  90 NW6       29.79R
HOUSTON HOOKS  PTCLDY    68  63  84 SW3       29.78R
ELLINGTON FLD  PTCLDY    66  64  94 NW3       29.79R
SUGAR LAND     PTCLDY    65  62  90 NW5       29.79R
*HOUSTON EXEC  PTCLDY    66  64  94 W5        29.80R
*CLEVELAND MUN PTCLDY    68  67  96 CALM      29.78S
*WHARTON       CLEAR     64  62  94 W5        29.81R
*COLUMBUS      FAIR      66  64  93 W5        29.81R
$$

TXZ214>216-236>238-190400-
THE UPPER TEXAS COAST

CITY           SKY/WX    TMP DP  RH WIND       PRES   REMARKS
*ORANGE        CLOUDY    71  68  90 CALM      29.78S
PORT ARTHUR    CLOUDY    71  69  93 CALM      29.76S
GALVESTON      NOT AVBL
ANGLETON       CLEAR     65  63  93 VRB3      29.77R
*BAY CITY      CLEAR     66  65  99 W7        29.78R
PALACIOS       CLEAR     70  65  84 S9        29.77S
$$

TXZ229>234-239>247-190400-
TEXAS COASTAL BEND AND RIO GRANDE PLAINS

CITY           SKY/WX    TMP DP  RH WIND       PRES   REMARKS
VICTORIA       CLEAR     66  65  96 SW7       29.80R
*BEEVILLE      CLOUDY    66  66 100 CALM      29.80F
ROCKPORT       CLEAR     71  66  84 SE12      29.79S
*PORT ARANSAS  PTCLDY    71  68  91 SE12      29.80S
*PORT LAVACA   CLEAR     66  64  94 S5        29.80R
*INGLESIDE     CLEAR     71  68  91 SE9       29.80S
CORPUS CHRISTI PTCLDY    70  67  90 SE7       29.80S
CORPUS NAS     CLEAR     71 N/A N/A SE12      29.80S
*ROBSTOWN      CLEAR     71  71 100 MISG      29.81R
ALICE          PTCLDY    70  67  90 SE5       29.79S
KINGSVILLE NAS CLEAR     72  71  97 SE7       29.80R
COTULLA        MOCLDY    71  65  81 S9        29.81R
*FAITH RANCH   CLEAR     73  70  88 SE9       29.79F
LAREDO         MOCLDY    73  70  91 SE7       29.82R
$$

TXZ248>255-190400-
DEEP SOUTH TEXAS

CITY           SKY/WX    TMP DP  RH WIND       PRES   REMARKS
BROWNSVILLE    PTCLDY    70  68  93 E5        29.81R
PORT ISABEL    PTCLDY    73  69  87 SE8       29.80R
*SOUTH PADRE     N/A    N/A N/A N/A MISG        N/A
HARLINGEN      CLEAR     69  67  93 E7        29.80R
*HEBBRONVILLE    N/A     70  66  89 E3        29.83R
MCALLEN        CLEAR     73  68  84 SE7       29.81R
*WESLACO       CLEAR     71  66  83 CALM      29.80S
FALFURRIAS     CLEAR     70  67  92 CALM      29.80R
EDINBURG       PTCLDY    72  67  84 SE3       29.80S
*ZAPATA        NOT AVBL
$$

TXZ213>215-236>238-242>244-246-247-251-254-255-190400-
CMAN STATIONS

STATION/POSITION TIME  TEMP    WIND        PRES    WAVE
                       AIR SEA DIR/SP/G            HT/PER
                 (UTC) (F)     (DEG/KT/KT) (MB)    (FT/S)
$$

GMZ080-GMZ150>470-190400-
OFFSHORE BUOY REPORTS

STATION/POSITION TIME  TEMP    WIND        PRES    WAVE
                       AIR SEA DIR/SP/G            HT/PER
                 (UTC) (F)     (DEG/KT/KT) (MB)    (FT/S)
$$


USA.gov is the U.S. government's official web portal to all federal, state and local government web resources and services.